When you browse on this site, cookies collect data to enhance your experience and personalize the content and advertising you see.
Visit our Privacy Policy to learn more. By continuing to use the site, you agree to this use of cookies and data.
  • In Austria
  • List of Countries
  • For 7 days
  • Water Temperature
  • Satellite Maps
  • Weather Map
  • News
  • Weather Widgets
  • user-avatar
    Login

    Hourly Weather Klagenfurt

    Today, 18 July, Thursday

    Time Temperature Precipitation Wind Pressure Humidity
    00:00 +15°C° 0.7 mm 1 mps 688 mmHg 94%
    01:00 +14°C° 0 mm 1 mps 688 mmHg 95%
    02:00 +14°C° 0.2 mm 1 mps 687 mmHg 95%
    03:00 +13°C° 0.2 mm 1 mps 687 mmHg 94%
    04:00 +13°C° 0.2 mm 1 mps 687 mmHg 94%
    05:00 +14°C° 0.1 mm 1 mps 687 mmHg 92%
    06:00 +14°C° 0.1 mm 0 mps 688 mmHg 91%
    07:00 +18°C° 0 mm 1 mps 688 mmHg 88%
    08:00 +20°C° 0.1 mm 1 mps 689 mmHg 76%
    09:00 +22°C° 0.1 mm 1 mps 689 mmHg 64%
    10:00 +25°C° 0.1 mm 1 mps 690 mmHg 52%
    11:00 +25°C° 0.2 mm 1 mps 690 mmHg 50%
    12:00 +26°C° 0.2 mm 1 mps 690 mmHg 48%
    13:00 +26°C° 0.2 mm 1 mps 690 mmHg 46%
    14:00 +25°C° 0.5 mm 1 mps 690 mmHg 52%
    15:00 +24°C° 0.5 mm 1 mps 690 mmHg 57%
    16:00 +23°C° 0.5 mm 1 mps 690 mmHg 62%
    17:00 +21°C° 0.6 mm 1 mps 689 mmHg 71%
    18:00 +20°C° 0.6 mm 1 mps 689 mmHg 81%
    19:00 +16°C° 0.6 mm 0 mps 689 mmHg 90%
    20:00 +16°C° 0.2 mm 1 mps 689 mmHg 91%
    21:00 +15°C° 0.2 mm 1 mps 689 mmHg 91%
    22:00 +14°C° 0.2 mm 1 mps 690 mmHg 92%
    23:00 +13°C° 0.1 mm 1 mps 690 mmHg 91%

    Tomorrow, 19 July, Friday

    Time Temperature Precipitation Wind Pressure Humidity
    00:00 +13°C° 0.1 mm 1 mps 690 mmHg 91%
    01:00 +13°C° 0.1 mm 1 mps 690 mmHg 91%
    02:00 +12°C° 0 mm 1 mps 690 mmHg 91%
    03:00 +12°C° 0 mm 1 mps 689 mmHg 90%
    04:00 +12°C° 0 mm 1 mps 689 mmHg 90%
    05:00 +13°C° 0 mm 1 mps 690 mmHg 89%
    06:00 +14°C° 0 mm 0 mps 690 mmHg 87%
    07:00 +15°C° 0 mm 0 mps 691 mmHg 85%
    08:00 +17°C° 0.2 mm 0 mps 691 mmHg 77%
    09:00 +21°C° 0.2 mm 1 mps 692 mmHg 68%
    10:00 +24°C° 0.2 mm 1 mps 692 mmHg 60%
    11:00 +24°C° 0.5 mm 1 mps 692 mmHg 58%
    12:00 +25°C° 0.5 mm 1 mps 692 mmHg 57%
    13:00 +26°C° 0.5 mm 1 mps 692 mmHg 55%
    14:00 +26°C° 0.4 mm 1 mps 692 mmHg 56%
    15:00 +25°C° 0.4 mm 1 mps 692 mmHg 57%
    16:00 +25°C° 0.4 mm 2 mps 692 mmHg 58%
    17:00 +23°C° 0.2 mm 1 mps 692 mmHg 65%
    18:00 +22°C° 0.2 mm 1 mps 691 mmHg 72%
    19:00 +20°C° 0.2 mm 1 mps 691 mmHg 79%
    20:00 +19°C° 0 mm 1 mps 691 mmHg 80%
    21:00 +18°C° 0 mm 1 mps 691 mmHg 81%
    22:00 +16°C° 0 mm 1 mps 692 mmHg 82%
    23:00 +15°C° 0 mm 1 mps 691 mmHg 82%

    Day after tomorrow, 20 July, Saturday

    Time Temperature Precipitation Wind Pressure Humidity
    00:00 +15°C° 0 mm 1 mps 691 mmHg 81%
    01:00 +14°C° 0 mm 1 mps 691 mmHg 81%
    02:00 +14°C° 0 mm 1 mps 691 mmHg 82%
    03:00 +14°C° 0 mm 1 mps 691 mmHg 82%
    04:00 +13°C° 0 mm 1 mps 691 mmHg 83%
    05:00 +14°C° 0 mm 0 mps 692 mmHg 79%
    06:00 +16°C° 0 mm 0 mps 692 mmHg 76%
    07:00 +18°C° 0 mm 0 mps 692 mmHg 72%
    08:00 +20°C° 0 mm 0 mps 693 mmHg 64%
    09:00 +22°C° 0 mm 0 mps 693 mmHg 56%
    10:00 +26°C° 0 mm 1 mps 694 mmHg 47%
    11:00 +27°C° 0 mm 1 mps 694 mmHg 45%
    12:00 +28°C° 0 mm 1 mps 694 mmHg 43%
    13:00 +28°C° 0 mm 2 mps 694 mmHg 41%
    14:00 +28°C° 0 mm 2 mps 694 mmHg 43%
    15:00 +28°C° 0 mm 2 mps 694 mmHg 45%
    16:00 +27°C° 0 mm 2 mps 693 mmHg 47%
    17:00 +25°C° 0 mm 2 mps 693 mmHg 58%
    18:00 +24°C° 0 mm 2 mps 693 mmHg 69%
    19:00 +22°C° 0 mm 1 mps 693 mmHg 80%
    20:00 +21°C° 0 mm 1 mps 693 mmHg 82%
    21:00 +19°C° 0 mm 1 mps 693 mmHg 85%
    22:00 +18°C° 0 mm 1 mps 693 mmHg 87%
    23:00 +18°C° 0 mm 1 mps 693 mmHg 86%

    21 July, Sunday

    Time Temperature Precipitation Wind Pressure Humidity
    00:00 +18°C° 0 mm 1 mps 693 mmHg 85%
    01:00 +16°C° 0 mm 1 mps 693 mmHg 84%
    02:00 +16°C° 0 mm 1 mps 693 mmHg 84%
    03:00 +16°C° 0 mm 1 mps 693 mmHg 83%
    04:00 +16°C° 0 mm 1 mps 693 mmHg 83%
    05:00 +18°C° 0 mm 1 mps 693 mmHg 80%
    06:00 +18°C° 0 mm 0 mps 694 mmHg 76%
    07:00 +19°C° 0 mm 0 mps 694 mmHg 73%
    08:00 +22°C° 0 mm 0 mps 695 mmHg 66%
    09:00 +24°C° 0 mm 0 mps 696 mmHg 59%
    10:00 +28°C° 0 mm 1 mps 696 mmHg 52%
    11:00 +29°C° 0 mm 1 mps 696 mmHg 49%
    12:00 +30°C° 0 mm 1 mps 696 mmHg 45%
    13:00 +31°C° 0 mm 1 mps 696 mmHg 41%
    14:00 +31°C° 0.1 mm 1 mps 696 mmHg 43%
    15:00 +30°C° 0.1 mm 1 mps 696 mmHg 45%
    16:00 +30°C° 0.1 mm 1 mps 696 mmHg 46%
    17:00 +28°C° 0.7 mm 1 mps 696 mmHg 60%
    18:00 +25°C° 0.7 mm 1 mps 696 mmHg 73%
    19:00 +23°C° 0.7 mm 1 mps 695 mmHg 86%
    20:00 +22°C° 1.4 mm 1 mps 696 mmHg 89%
    21:00 +20°C° 1.4 mm 1 mps 696 mmHg 92%
    22:00 +19°C° 1.4 mm 1 mps 696 mmHg 95%
    23:00 +19°C° 0.1 mm 1 mps 696 mmHg 95%

    22 July, Monday

    Time Temperature Precipitation Wind Pressure Humidity
    00:00 +18°C° 0.1 mm 1 mps 696 mmHg 95%
    01:00 +18°C° 0.1 mm 1 mps 695 mmHg 95%
    02:00 +18°C° 0 mm 1 mps 695 mmHg 95%
    03:00 +18°C° 0 mm 1 mps 695 mmHg 94%
    04:00 +18°C° 0 mm 1 mps 695 mmHg 94%
    05:00 +19°C° 0 mm 1 mps 696 mmHg 92%
    06:00 +18°C° 0 mm 0 mps 696 mmHg 91%
    07:00 +19°C° 0 mm 0 mps 696 mmHg 89%
    08:00 +23°C° 0.2 mm 1 mps 697 mmHg 81%
    09:00 +25°C° 0.2 mm 1 mps 697 mmHg 73%
    10:00 +27°C° 0.2 mm 1 mps 698 mmHg 65%
    11:00 +28°C° 0.2 mm 1 mps 698 mmHg 60%
    12:00 +29°C° 0.2 mm 1 mps 698 mmHg 54%
    13:00 +30°C° 0.2 mm 1 mps 698 mmHg 49%
    14:00 +30°C° 0.1 mm 1 mps 697 mmHg 49%
    15:00 +30°C° 0.1 mm 1 mps 697 mmHg 49%
    16:00 +30°C° 0.1 mm 1 mps 697 mmHg 48%
    17:00 +28°C° 0.2 mm 1 mps 696 mmHg 59%
    18:00 +26°C° 0.2 mm 1 mps 696 mmHg 69%
    19:00 +22°C° 0.2 mm 0 mps 696 mmHg 80%
    20:00 +23°C° 0 mm 1 mps 696 mmHg 81%
    21:00 +21°C° 0 mm 1 mps 696 mmHg 82%
    22:00 +20°C° 0 mm 1 mps 696 mmHg 83%
    23:00 +20°C° 0 mm 1 mps 696 mmHg 84%

    23 July, Tuesday

    Time Temperature Precipitation Wind Pressure Humidity
    00:00 +18°C° 0 mm 0 mps 696 mmHg 85%
    01:00 +17°C° 0 mm 0 mps 695 mmHg 86%
    02:00 +17°C° 0 mm 0 mps 695 mmHg 88%
    03:00 +16°C° 0 mm 0 mps 695 mmHg 90%
    04:00 +16°C° 0 mm 0 mps 695 mmHg 92%
    05:00 +17°C° 0 mm 0 mps 695 mmHg 89%
    06:00 +18°C° 0 mm 0 mps 695 mmHg 86%
    07:00 +20°C° 0 mm 0 mps 695 mmHg 84%
    08:00 +23°C° 0 mm 1 mps 696 mmHg 76%
    09:00 +25°C° 0 mm 1 mps 696 mmHg 68%
    10:00 +26°C° 0 mm 1 mps 696 mmHg 60%
    11:00 +27°C° 0 mm 1 mps 696 mmHg 57%
    12:00 +28°C° 0 mm 1 mps 696 mmHg 53%
    13:00 +29°C° 0 mm 1 mps 696 mmHg 50%
    14:00 +29°C° 0 mm 1 mps 695 mmHg 49%
    15:00 +29°C° 0 mm 1 mps 695 mmHg 49%
    16:00 +29°C° 0 mm 1 mps 695 mmHg 49%
    17:00 +27°C° 0 mm 1 mps 694 mmHg 58%
    18:00 +26°C° 0 mm 1 mps 694 mmHg 68%
    19:00 +24°C° 0 mm 1 mps 694 mmHg 77%
    20:00 +22°C° 0 mm 1 mps 694 mmHg 80%
    21:00 +21°C° 0 mm 1 mps 694 mmHg 82%
    22:00 +20°C° 0 mm 1 mps 693 mmHg 85%
    23:00 +19°C° 0 mm 1 mps 693 mmHg 85%
    Show more